Hourly Data Report for September 12, 2017

All times are specified in Local Standard Time (LST). Add 1 hour to adjust for Daylight Saving Time where and when it is observed.

COMOX A
BRITISH COLUMBIA

49°43'00.000" N
124°54'00.000" W
25.60 m
1021830
71893
YQQ

Download Data

Hourly Data (September 2017)
Hourly Data Report for September 12, 2017
Temp Definition
°C
Dew Point Temp Definition
°C
Rel Hum Definition
%
Wind Dir Definition
10's deg

Wind Spd Definition
km/h
Visibility Definition
km
Stn Press Definition
kPa
Hmdx Definition


Wind Chill Definition


Weather Definition


TIME
00:00 16.8 13.3 80 33 20 32.2 101.42     Cloudy
01:00 15.1 12.8 86 34 20 32.2 101.45     Cloudy
02:00 14.6 12.6 88 35 22 32.2 101.42     Cloudy
03:00 14.7 11.5 81 33 13 32.2 101.41     Cloudy
04:00 14.3 10.5 78 35 13 32.2 101.37     Cloudy
05:00 14.5 10.1 75 35 13 32.2 101.34     Cloudy
06:00 13.8 10.5 80 35 20 32.2 101.36     Cloudy
07:00 13.9 10.5 80 33 20 32.2 101.40     Cloudy
08:00 15.3 10.6 74 34 20 32.2 101.39     Mostly Cloudy
09:00 15.1 10.6 74 34 26 32.2 101.37     Mostly Cloudy
10:00 16.7 10.8 68 35 26 32.2 101.36     Mostly Cloudy
11:00 17.6 11.0 65 34 20 32.2 101.35     Mostly Cloudy
12:00 18.6 10.6 60 36 26 32.2 101.32     Mostly Cloudy
13:00 19.6 10.1 54 36 26 32.2 101.29     Mainly Clear
14:00 19.6 10.3 55 36 26 32.2 101.26     Mostly Cloudy
15:00 19.4 9.4 52 36 32 32.2 101.24     Mainly Clear
16:00 18.7 9.2 54 34 26 32.2 101.22     Mainly Clear
17:00 18.1 9.4 57 35 35 32.2 101.22     Mainly Clear
18:00 16.6 9.5 63 35 24 32.2 101.21     Mainly Clear
19:00 15.5 9.2 66 35 15 32.2 101.24     Mainly Clear
20:00 14.9 8.9 67 33 20 32.2 101.24     Mainly Clear
21:00 14.3 5.9 57 35 9 32.2 101.25     Clear
22:00 13.9 5.2 56 34 17 32.2 101.24     Clear
23:00 13.6 7.3 66 34 24 32.2 101.27     Clear

Notes on Data Quality.

Legend

  • E = Estimated
  • M = Missing
  • NA = Not Available
  • ‡ = Partner data that is not subject to review by the National Climate Archives
Date modified: